Regional Weather Roundup
Issued by NWS Sterling, VA

Home | Current Version | Previous Version | Graphics & Text | Print | Product List | Glossary On
Versions: 1 2 3 4 5 6 7 8 9 10 11 12 13 14 15 16 17 18 19 20 21 22 23 24 25 26 27 28 29 30 31 32 33 34 35 36 37 38 39 40 41 42 43 44 45 46 47 48 49 50
000
ASUS41 KLWX 251310
RWRLWX

REGIONAL WEATHER ROUNDUP
NATIONAL WEATHER SERVICE BALTIMORE MD/WASHINGTON DC
900 AM EDT WED MAY 25 2016

Note: "FAIR" indicates few or no clouds below 12,000 feet
with no significant weather and/or obstructions to visibility.
 TC=TEMPERATURE CELSIUS

 * =Non NWS site. Station does not report precipitation (e.g. rain,
    snow, etc.), thunder, or fog.

DCZ001-MDZ009-015-VAZ040>042-051-053>054-251400-
WASHINGTON METRO

CITY           SKY/WX    TMP DP  RH WIND       PRES   REMARKS
WASHINGTON NAT FAIR      69  59  70 SE3       30.17R
DULLES         FAIR      71  55  56 NW3       30.18R
QUANTICO       FAIR      67  60  78 SW5       30.18R
COLLEGE PARK*  FAIR      73  54  49 CALM      30.15S
LEESBURG*      FAIR      73  61  64 W3        30.19R
MANASSAS*      SUNNY     66  61  82 CALM      30.18R

$$

MDZ006>007-011-014-251400-
BALTIMORE METRO

CITY           SKY/WX    TMP DP  RH WIND       PRES   REMARKS
BWI AIRPORT    PTSUNNY   74  56  53 W8        30.14R
MD SCIENCE CTR   N/A     77  52  41 MISG      30.17R
MARTIN STATE   SUNNY     73  63  68 CALM      30.15R
ANNAPOLIS      SUNNY     69  58  67 N5        30.14S
FORT MEADE*    SUNNY     68  61  77 CALM      30.17S

$$

MDZ012-015-019>023-251400-
MARYLAND EASTERN SHORE

CITY           SKY/WX    TMP DP  RH WIND       PRES   REMARKS
OCEAN CITY     SUNNY     73  57  57 NW8       30.14R
SALISBURY      SUNNY     74  57  55 NW6       30.15R
BAY BRIDGE AP* SUNNY     70  54  56 W3        30.15R
CAMBRIDGE*     SUNNY     72  55  56 NW5       30.15R
EASTON*        MOSUNNY   73  63  68 NW6       30.18S

$$

MDZ017>025-251400-
SOUTHERN MARYLAND

CITY           SKY/WX    TMP DP  RH WIND       PRES   REMARKS
PATUXENT RIVER PTSUNNY   75  55  49 NW8       30.16R
ST INIGOES     SUNNY     70  59  68 W5        30.16R
LEONARDTOWN*   SUNNY     72  55  56 W5        30.18R

$$

MDZ003>005-251400-
NORTH CENTRAL MARYLAND

CITY           SKY/WX    TMP DP  RH WIND       PRES   REMARKS
FREDERICK*     SUNNY     72  61  68 SW6       30.19S
HAGERSTOWN APT SUNNY     70  52  52 S7        30.17S
WESTMINSTER*   SUNNY     70  66  88 W3        30.17R

$$

MDZ501>502-251400-
WESTERN MARYLAND

CITY           SKY/WX    TMP DP  RH WIND       PRES   REMARKS
OAKLAND*       NOT AVBL
CUMBERLAND*    SUNNY     61  54  77 CALM      30.24S

$$

VAZ025>031-251400-
SHENANDOAH VALLEY

CITY           SKY/WX    TMP DP  RH WIND       PRES   REMARKS
WINCHESTER*    FAIR      70  54  56 SW6       30.19S
FRONT ROYAL*   FAIR      66  54  63 S9        30.19R
LURAY*         FAIR      64  55  72 SW6       30.22S
NEW MARKET*    FAIR      64  54  69 SW5       30.21F
STAUNTON*      FAIR      63  54  73 CALM      30.25F
WAYNESBORO*    FAIR      64  55  72 CALM      30.25S

$$

WVZ021-048>050-054>055-251400-
EASTERN WEST VIRGINIA PANHANDLE

CITY           SKY/WX    TMP DP  RH WIND       PRES   REMARKS
MARTINSBURG    FAIR      65  55  70 CALM      30.17F
PETERSBURG*    FAIR      62  55  79 CALM      30.22F

$$

VAZ036>039-050-251400-
CENTRAL FOOTHILLS

CITY           SKY/WX    TMP DP  RH WIND       PRES   REMARKS
CHARLOTTESVILL FAIR      69  55  60 CALM      30.20R
CULPEPER*      FAIR      71  61  69 CALM      30.20R
ORANGE*        FAIR      73  54  49 CALM      30.21R
GORDONSVILLE*  FAIR      74  58  57 SW3       30.19R
WARRENTON*     FAIR      71  54  54 SW5       30.18S

$$

VAZ055>057-251400-
NORTH AND CENTRAL PIEDMONT

CITY           SKY/WX    TMP DP  RH WIND       PRES   REMARKS
FREDERICKSBRG* FAIR      72  59  64 CALM      30.17S
STAFFORD*      FAIR      72  56  57 W5        30.22R

$$

NCZ024-NYZ072-PAZ021-071-VAZ022-071-251400-
OTHER REGIONAL OBSERVATIONS

CITY           SKY/WX    TMP DP  RH WIND       PRES   REMARKS
NEW YORK CITY  SUNNY     70  48  45 W5        30.10R
PHILADELPHIA   MOSUNNY   70  53  54 SW6       30.12R
PITTSBURGH     CLOUDY    69  50  50 SW6       30.16S
ROANOKE        FAIR      66  54  65 CALM      30.26S
RICHMOND       PTSUNNY   74  57  55 NW5       30.19R
RALEIGH        MOSUNNY   70  59  68 SW6       30.23R

$$

ANZ530>537-251400-
MARINE OBSERVATIONS

STATION/POSITION TIME  TEMP    WIND        PRES
                       AIR SEA DIR/SP/G
                 (UTC) (F)     (DEG/KT/KT) (MB)
THOMAS PT LIGHT  1300   69 62  320/  5/  6 1022.1R
BALT KEY BRIDGE  1200   67     230/  4/  4 1020.3R
COVE POINT       1200   71     320/  6/  9 1021.2R
LEWISETTA        1200   67 66  260/  4/  5 1020.6R
SOLOMONS ISLAND  1200   68 63  300/  3/  5   N/A
PINEY POINT      1200          360/  3/  4   N/A

$$




USA.gov is the U.S. government's official web portal to all federal, state and local government web resources and services.